Salida, CO

11:59 PM MDT on August 25, 2016 (GMT -0600)
Salida

Weather History for KANK - December, 2013

Change the Weather History Date:

Sunday, December 22, 2013

  Actual Average (KGUC) Record (KGUC)
Temperature  
Mean Temperature 20 °F -  
Max Temperature 32 °F 22 °F 37 °F (2010)
Min Temperature 9 °F 0 °F -14 °F (2012)
Degree Days  
Heating Degree Days 44    
Moisture  
Dew Point 6 °F    
Average Humidity 52    
Maximum Humidity 78    
Minimum Humidity 27    
Precipitation  
Precipitation 0.00 in - - ()
Sea Level Pressure  
Sea Level Pressure 30.07 in    
Wind  
Wind Speed 9 mph (WSW)    
Max Wind Speed 28 mph    
Max Gust Speed 38 mph    
Visibility 10 miles    
Events      
Averages and records for this station are not official NWS values.
T = Trace of Precipitation, MM = Missing Value Source: NWS Daily Summary

Daily Weather History Graph

Daily Weather History Graph

Search for Another Location

Airport or City:

Trip Planner

Search our weather history database for the weather conditions in past years. The results will help you decide how hot, cold, wet, or windy it might be!

Date:

Astronomy

Dec. 22, 2013 Rise Set
Actual Time 7:18 AM MST 4:47 PM MST
Civil Twilight 6:48 AM MST 5:17 PM MST
Nautical Twilight 6:15 AM MST 5:50 PM MST
Astronomical Twilight 5:43 AM MST 6:22 PM MST
Moon 9:59 PM MST (12/22) 10:19 AM MST (12/22)
Length of Visible Light 10h 28m
Length of Day
9h 28m
Waning Gibbous, 76% of the Moon is Illuminated
Dec 22
Waning Gibbous
Dec 25
Last Quarter
Jan 1
New
Jan 7
First Quarter
Jan 15
Full

Hourly Weather History & Observations

Time (MST) Temp. Windchill Dew Point Humidity Pressure Visibility Wind Dir Wind Speed Gust Speed Precip Events Conditions
12:15 AM 18.0 °F 12.7 °F 8.6 °F 67% 29.90 in 10.0 mi WSW 3.5 mph - N/A   Clear
12:35 AM 17.8 °F 9.6 °F 8.6 °F 67% 29.90 in 10.0 mi WSW 5.8 mph - N/A   Clear
12:55 AM 18.1 °F 12.9 °F 8.2 °F 65% 29.92 in 10.0 mi WNW 3.5 mph - N/A   Clear
1:15 AM 15.6 °F 7.0 °F 7.7 °F 71% 29.92 in 10.0 mi West 5.8 mph - N/A   Clear
1:35 AM 15.6 °F 7.0 °F 7.5 °F 70% 29.93 in 10.0 mi West 5.8 mph - N/A   Clear
1:55 AM 14.2 °F 3.1 °F 7.2 °F 74% 29.95 in 10.0 mi WSW 8.1 mph - N/A   Clear
2:15 AM 15.6 °F 5.9 °F 6.8 °F 68% 29.96 in 10.0 mi SW 6.9 mph - N/A   Clear
2:35 AM 14.2 °F 6.7 °F 6.6 °F 72% 29.97 in 10.0 mi West 4.6 mph - N/A   Clear
2:55 AM 14.2 °F - 6.6 °F 72% 29.98 in 10.0 mi Calm Calm - N/A   Clear
3:15 AM 14.2 °F 5.3 °F 6.3 °F 71% 29.98 in 10.0 mi West 5.8 mph - N/A   Clear
3:35 AM 13.5 °F - 5.9 °F 72% 29.98 in 10.0 mi Calm Calm - N/A   Clear
3:55 AM 12.4 °F - 5.2 °F 73% 30.00 in 10.0 mi Calm Calm - N/A   Clear
4:15 AM 11.8 °F 1.3 °F 4.8 °F 73% 30.00 in 10.0 mi WSW 6.9 mph - N/A   Clear
4:35 AM 12.2 °F - 5.4 °F 74% 30.00 in 10.0 mi Calm Calm - N/A   Clear
4:55 AM 12.9 °F 6.9 °F 5.2 °F 71% 30.01 in 10.0 mi NW 3.5 mph - N/A   Clear
5:15 AM 13.5 °F - 4.8 °F 68% 30.01 in 10.0 mi Calm Calm - N/A   Clear
5:35 AM 11.8 °F - 5.0 °F 74% 30.03 in 10.0 mi Calm Calm - N/A   Clear
5:55 AM 11.5 °F 5.3 °F 4.6 °F 74% 30.04 in 10.0 mi West 3.5 mph - N/A   Clear
6:15 AM 11.1 °F - 4.5 °F 75% 30.04 in 10.0 mi Calm Calm - N/A   Clear
6:35 AM 11.1 °F - 4.8 °F 76% 30.05 in 10.0 mi Calm Calm - N/A   Clear
6:55 AM 10.4 °F - 3.7 °F 74% 30.06 in 10.0 mi Calm Calm - N/A   Clear
7:15 AM 9.1 °F 2.6 °F 3.2 °F 77% 30.07 in 10.0 mi West 3.5 mph - N/A   Clear
7:35 AM 9.5 °F - 3.9 °F 78% 30.08 in 10.0 mi Calm Calm - N/A   Clear
7:55 AM 11.8 °F 5.7 °F 5.0 °F 74% 30.09 in 10.0 mi NNW 3.5 mph - N/A   Clear
8:15 AM 13.5 °F - 5.4 °F 70% 30.10 in 10.0 mi Calm Calm - N/A   Clear
8:35 AM 16.7 °F 11.2 °F 7.3 °F 67% 30.10 in 10.0 mi NNE 3.5 mph - N/A   Clear
8:55 AM 18.1 °F - 8.2 °F 65% 30.10 in 10.0 mi Calm Calm - N/A   Clear
9:15 AM 18.9 °F 13.7 °F 8.4 °F 64% 30.10 in 10.0 mi North 3.5 mph - N/A   Clear
9:35 AM 21.0 °F - 6.6 °F 54% 30.10 in 10.0 mi Calm Calm - N/A   Clear
9:55 AM 25.3 °F 21.1 °F 3.9 °F 40% 30.11 in 10.0 mi NNW 3.5 mph - N/A   Clear
10:15 AM 26.1 °F 21.9 °F 3.9 °F 39% 30.11 in 10.0 mi North 3.5 mph - N/A   Clear
10:35 AM 29.1 °F 23.0 °F 4.3 °F 35% 30.11 in 10.0 mi West 5.8 mph - N/A   Clear
10:55 AM 31.8 °F 25.4 °F 3.6 °F 30% 30.10 in 10.0 mi WSW 6.9 mph 18.4 mph N/A   Clear
11:15 AM 32.7 °F 23.4 °F 1.8 °F 27% 30.09 in 10.0 mi SW 12.7 mph 20.7 mph N/A   Clear
11:35 AM 32.2 °F 20.4 °F 1.9 °F 28% 30.09 in 10.0 mi SW 19.6 mph 32.2 mph N/A   Clear
11:55 AM 32.9 °F 22.0 °F 3.2 °F 29% 30.07 in 10.0 mi SW 17.3 mph 25.3 mph N/A   Clear
12:15 PM 32.0 °F 20.5 °F 3.9 °F 31% 30.07 in 10.0 mi SSW 18.4 mph 26.5 mph N/A   Clear
12:35 PM 32.0 °F 21.2 °F 4.6 °F 32% 30.06 in 10.0 mi SSW 16.1 mph 26.5 mph N/A   Scattered Clouds
12:55 PM 31.1 °F 18.6 °F 5.0 °F 33% 30.06 in 10.0 mi SSW 20.7 mph 32.2 mph N/A   Scattered Clouds
1:15 PM 29.5 °F 16.2 °F 5.4 °F 36% 30.06 in 10.0 mi SSW 21.9 mph 29.9 mph N/A   Mostly Cloudy
1:35 PM 31.6 °F 20.4 °F 5.0 °F 33% 30.05 in 10.0 mi SSW 17.3 mph 29.9 mph N/A   Mostly Cloudy
1:55 PM 32.0 °F 19.2 °F 5.4 °F 33% 30.05 in 10.0 mi SSW 23.0 mph 31.1 mph N/A   Scattered Clouds
2:15 PM 32.0 °F 19.2 °F 5.5 °F 33% 30.04 in 10.0 mi SSW 23.0 mph 31.1 mph N/A   Scattered Clouds
2:35 PM 32.2 °F 20.0 °F 5.9 °F 33% 30.05 in 10.0 mi SW 20.7 mph 28.8 mph N/A   Scattered Clouds
2:55 PM 32.9 °F 21.3 °F 5.7 °F 32% 30.05 in 10.0 mi SW 19.6 mph 29.9 mph N/A   Clear
3:15 PM 32.0 °F 21.6 °F 5.9 °F 33% 30.07 in 10.0 mi SSW 15.0 mph 31.1 mph N/A   Clear
3:35 PM 31.8 °F 19.9 °F 5.9 °F 34% 30.07 in 10.0 mi SSW 19.6 mph 27.6 mph N/A   Scattered Clouds
3:55 PM 30.9 °F 18.4 °F 6.8 °F 36% 30.09 in 10.0 mi SSW 20.7 mph 27.6 mph N/A   Scattered Clouds
4:15 PM 28.8 °F 15.2 °F 7.3 °F 40% 30.09 in 10.0 mi SW 21.9 mph 31.1 mph N/A   Scattered Clouds
4:35 PM 28.2 °F 15.2 °F 7.7 °F 42% 30.10 in 10.0 mi WSW 19.6 mph 25.3 mph N/A   Clear
4:55 PM 27.9 °F 14.0 °F 7.7 °F 43% 30.10 in 10.0 mi SW 21.9 mph 29.9 mph N/A   Clear
5:15 PM 27.5 °F 13.2 °F 8.1 °F 44% 30.12 in 10.0 mi SW 23.0 mph 29.9 mph N/A   Clear
5:35 PM 27.0 °F 12.8 °F 8.4 °F 46% 30.13 in 10.0 mi WSW 21.9 mph 29.9 mph N/A   Clear
5:55 PM 26.8 °F 12.6 °F 7.9 °F 45% 30.13 in 10.0 mi SW 21.9 mph 31.1 mph N/A   Scattered Clouds
6:15 PM 26.6 °F 12.0 °F 8.1 °F 46% 30.13 in 10.0 mi SW 23.0 mph 31.1 mph N/A   Scattered Clouds
6:35 PM 26.8 °F 12.3 °F 7.7 °F 45% 30.13 in 10.0 mi SW 23.0 mph 31.1 mph N/A   Clear
6:55 PM 27.1 °F 12.7 °F 7.2 °F 43% 30.12 in 10.0 mi WSW 23.0 mph 38.0 mph N/A   Clear
7:15 PM 27.3 °F 12.7 °F 6.8 °F 42% 30.13 in 10.0 mi SW 24.2 mph 34.5 mph N/A   Clear
7:35 PM 26.8 °F 12.9 °F 7.0 °F 43% 30.14 in 10.0 mi WSW 20.7 mph 28.8 mph N/A   Clear
7:55 PM 27.0 °F 12.5 °F 7.2 °F 43% 30.15 in 10.0 mi SW 23.0 mph 31.1 mph N/A   Clear
8:15 PM 27.3 °F 12.1 °F 7.5 °F 43% 30.15 in 10.0 mi SW 26.5 mph 34.5 mph N/A   Clear
8:35 PM 27.5 °F 12.0 °F 7.7 °F 43% 30.15 in 10.0 mi SW 27.6 mph 35.7 mph N/A   Clear
8:55 PM 27.3 °F 13.0 °F 8.8 °F 46% 30.16 in 10.0 mi SW 23.0 mph 33.4 mph N/A   Clear
9:15 PM 27.3 °F 13.3 °F 9.5 °F 47% 30.16 in 10.0 mi WSW 21.9 mph 34.5 mph N/A   Clear
9:35 PM 27.5 °F 14.2 °F 9.0 °F 46% 30.17 in 10.0 mi WSW 19.6 mph 28.8 mph N/A   Clear
9:55 PM 27.5 °F 15.0 °F 9.1 °F 46% 30.17 in 10.0 mi WSW 17.3 mph 28.8 mph N/A   Clear
10:15 PM 27.5 °F 16.3 °F 8.8 °F 45% 30.18 in 10.0 mi WSW 13.8 mph 29.9 mph N/A   Clear
10:35 PM 27.5 °F 14.6 °F 8.6 °F 45% 30.19 in 10.0 mi SW 18.4 mph 21.9 mph N/A   Clear
10:55 PM 27.5 °F 15.4 °F 8.4 °F 45% 30.19 in 10.0 mi WSW 16.1 mph 21.9 mph N/A   Clear
11:15 PM 27.5 °F 15.0 °F 8.2 °F 44% 30.20 in 10.0 mi SW 17.3 mph 27.6 mph N/A   Clear
11:35 PM 27.5 °F 15.4 °F 8.6 °F 45% 30.20 in 10.0 mi SW 16.1 mph 23.0 mph N/A   Clear
11:55 PM 27.5 °F 14.2 °F 9.0 °F 46% 30.21 in 10.0 mi WSW 19.6 mph 27.6 mph N/A   Scattered Clouds